JP7FSO Weather Reports


time (UTC)temp
C
wind
direction
speed
KPH
gust
KPH
rain 1hr
cm
rain 24hr
cm
rain mn
cm
humidity
%
barometer
mb
20260831114530 22 197 0.0 0.0 0.00 0.00 0.03 81 1009.4
20260831113017 22 199 0.0 0.0 0.00 0.00 0.03 81 1009.3
20260831111607 22 199 0.0 0.0 0.00 0.00 0.03 81 1009.4
20260831110013 22 160 0.0 0.0 0.00 0.00 0.03 81 1009.3
20260831104511 22 175 0.0 0.0 0.00 0.00 0.03 80 1009.3
20260831103110 22 207 0.0 0.0 0.00 0.00 0.03 80 1009.3
20260831101603 22 176 0.0 0.0 0.00 0.00 0.03 79 1009.2
20260831100008 23 188 0.0 0.0 0.00 0.00 0.03 78 1008.9
20260831094532 23 152 0.0 0.0 0.00 0.00 0.03 78 1008.5
20260831093141 23 158 0.0 0.0 0.00 0.00 0.03 77 1008.4
20260831091534 23 106 0.0 0.0 0.00 0.00 0.03 76 1008.3
20260831090059 23 160 0.0 0.0 0.00 0.00 0.03 76 1008.3
20260831084653 23 162 0.0 0.0 0.00 0.00 0.03 75 1008.0
20260831083014 23 165 0.0 0.0 0.00 0.00 0.03 75 1007.9
20260831081502 24 217 0.0 0.0 0.00 0.00 0.03 74 1007.9
20260831080122 24 181 0.0 0.0 0.00 0.00 0.03 74 1007.8
20260831074521 24 192 0.0 0.0 0.00 0.00 0.03 74 1007.8
20260831073013 24 177 0.0 0.0 0.00 0.00 0.03 73 1007.6
20260831070029 25 160 0.0 0.0 0.00 0.00 0.03 72 1007.3
20260831064556 25 145 0.0 0.0 0.00 0.00 0.03 71 1007.3
20260831063014 25 167 0.0 0.0 0.00 0.00 0.03 69 1007.3
20260831061516 26 134 0.0 0.0 0.00 0.00 0.03 68 1007.2
20260831054505 26 179 0.0 0.0 0.00 0.00 0.03 66 1007.2
20260831053104 27 239 0.0 0.0 0.00 0.00 0.03 64 1007.1
20260831051536 27 181 0.0 0.0 0.00 0.00 0.03 62 1007.1
20260831050024 27 153 1.6 0.0 0.00 0.00 0.03 60 1006.9
20260831044524 27 162 0.0 0.0 0.00 0.00 0.03 62 1007.1
20260831043023 27 172 0.0 0.0 0.00 0.00 0.03 63 1007.1
20260831041510 27 129 0.0 0.0 0.00 0.00 0.03 63 1007.1
20260831040015 27 174 0.0 0.0 0.00 0.00 0.03 65 1007.0
20260831034520 26 257 0.0 0.0 0.00 0.00 0.03 66 1007.2
20260831033009 26 209 0.0 0.0 0.00 0.00 0.03 66 1007.2
20260831031500 26 245 0.0 0.0 0.00 0.00 0.03 66 1007.2
20260831030008 26 263 0.0 0.0 0.00 0.00 0.03 66 1007.2
20260831023104 26 156 0.0 0.0 0.00 0.00 0.03 67 1007.2
20260831021556 26 178 0.0 0.0 0.00 0.00 0.03 66 1007.3
20260831020031 25 111 1.6 0.0 0.00 0.00 0.03 69 1007.2
20260831014626 25 137 1.6 0.0 0.00 0.00 0.03 72 1007.3
20260831013003 23 113 1.6 0.0 0.00 0.00 0.03 79 1007.3
20260831011600 23 122 0.0 0.0 0.00 0.00 0.03 85 1007.7
20260831010018 22 143 0.0 0.0 0.00 0.00 0.03 90 1007.7
20260831004554 22 121 0.0 0.0 0.00 0.00 0.03 93 1007.7
20260831003029 21 191 0.0 0.0 0.00 0.00 0.03 95 1007.5
20260831001533 21 155 0.0 0.0 0.00 0.00 0.03 96 1007.3
20260831000013 21 94 0.0 0.0 0.00 0.00 0.03 96 1007.3
20260830234554 21 123 0.0 0.0 0.00 0.00 0.03 97 1007.3
20260830233020 21 113 0.0 0.0 0.00 0.00 0.03 98 1007.1
20260830231525 20 153 0.0 0.0 0.00 0.00 0.03 98 1007.0
20260830230031 20 153 0.0 0.0 0.00 0.00 0.03 98 1007.0
20260830223012 20 106 0.0 0.0 0.00 0.00 0.03 98 1006.9
20260830221516 20 106 0.0 0.0 0.00 0.00 0.03 98 1006.8
20260830220114 19 106 0.0 0.0 0.00 0.00 0.03 98 1006.8
20260830214506 19 114 0.0 0.0 0.00 0.00 0.03 98 1006.8
20260830213053 19 114 0.0 0.0 0.00 0.00 0.03 97 1006.8
20260830211602 19 110 0.0 0.0 0.00 0.00 0.03 97 1006.7
20260830210107 19 110 0.0 0.0 0.00 0.00 0.03 97 1006.4
20260830204600 19 110 0.0 0.0 0.00 0.00 0.03 97 1006.3
20260830203027 18 110 0.0 0.0 0.00 0.00 0.03 97 1006.3
20260830200020 18 110 0.0 0.0 0.00 0.00 0.03 97 1005.9
20260830194513 18 110 0.0 0.0 0.00 0.00 0.03 97 1005.7
20260830191518 18 110 0.0 0.0 0.00 0.00 0.03 97 1005.5
20260830184512 18 110 0.0 0.0 0.00 0.00 0.03 97 1005.2
20260830183016 18 110 0.0 0.0 0.00 0.00 0.03 97 1005.1
20260830181501 18 110 0.0 0.0 0.00 0.00 0.03 97 1005.1
20260830180013 18 110 0.0 0.0 0.00 0.00 0.03 97 1005.1
20260830174504 18 110 0.0 0.0 0.00 0.00 0.03 97 1005.2
20260830173021 19 110 0.0 0.0 0.00 0.00 0.03 97 1005.1
20260830171514 19 108 0.0 0.0 0.00 0.00 0.03 97 1004.8
20260830170023 19 106 0.0 0.0 0.00 0.00 0.03 97 1004.7
20260830164558 19 106 0.0 0.0 0.00 0.00 0.03 96 1004.7
20260830163035 19 110 0.0 0.0 0.00 0.00 0.00 96 1004.7
20260830161506 19 108 0.0 0.0 0.00 0.00 0.00 96 1004.7
20260830154604 19 108 0.0 0.0 0.00 0.00 0.00 96 1004.7
20260830153054 19 108 0.0 0.0 0.00 0.00 0.00 96 1004.7
20260830151510 19 108 0.0 0.0 0.00 0.00 0.00 96 1004.7
20260830150012 19 108 0.0 0.0 0.00 0.00 1.32 96 1004.7
20260830144506 19 108 0.0 0.0 0.00 0.00 1.32 96 1004.7
20260830143039 19 108 0.0 0.0 0.00 0.00 1.32 96 1004.5
20260830141533 20 108 0.0 0.0 0.00 0.00 1.32 96 1004.7
20260830140012 20 108 0.0 0.0 0.00 0.00 1.32 96 1004.6
20260830134535 20 108 0.0 0.0 0.00 0.00 1.32 96 1004.4
20260830133005 20 108 0.0 0.0 0.00 0.00 1.32 96 1004.4
20260830131533 20 108 0.0 0.0 0.00 0.00 1.32 95 1004.2
20260830130002 20 108 0.0 0.0 0.00 0.00 1.30 95 1004.3
20260830124601 20 109 0.0 0.0 0.00 0.00 1.30 95 1004.3
20260830123021 20 109 0.0 0.0 0.00 0.00 1.30 95 1004.2
20260830121520 20 304 0.0 0.0 0.00 0.00 1.30 94 1004.3
20260830120003 20 294 0.0 0.0 0.00 0.00 1.27 94 1004.4